Temp
46 41 38 44 45 41 39 36 35 37 44 40 39 39 45 49 44 46 46 47 49 50 48 47 47 46 47 47 48 48 49 49 49 50 52 57 58 56 54 54 52 53 52 55
40 36 42 47 44 41 39 35 35 39 43 41 39 39 44 47 47 50 51 48 49 46 45 46 45 43 44 44 45 46 46 47 47 48 51 56 56 54 53 52 49 49 49 49
37 41 45 44 39 39 35 35 34 35 40 39 37 36 39 44 46 48 50 51 49 48 45 44 43 41 42 41 42 44 44 45 45 47 52 54 56 54 53 50 46 46 48 47
37 42 42 38 37 39 33 41 41 38 35 30 36 26 35 40 43 47 48 47 46 45 43 42 41 40 40 39 40 42 43 43 46 45 50 51 49 46 45 45 45 45 47 46
35 37 37 37 39 42 38 42 40 38 34 30 29 28 34 37 41 43 43 44 43 42 43 41 41 41 40 39 38 39 41 41 41 43 45 46 45 45 45 44 42 42 43 43
37 41 42 41 42 45 44 40 38 34 33 22 31 30 28 35 40 42 40 39 41 40 39 39 40 41 39 39 39 40 40 38 39 40 40 41 42 41 40 39 38 38 38 38
35 35 39 43 39 41 40 36 21 21 24 21 30 28 30 39 43 43 44 39 38 40 39 38 38 38 38 38 39 40 39 37 37 37 36 37 37 37 37 36 36 36 35 35
27 24 38 43 40 36 35 35 24 19 19 22 30 26 35 40 39 42 43 40 39 39 39 39 39 39 39 38 38 37 37 36 35 35 35 35 35 34 34 35 34 33 33 33
27 29 36 39 41 42 36 35 37 26 18 20 26 31 40 40 38 38 38 39 39 39 39 39 39 39 39 38 38 37 36 35 35 34 34 33 34 33 33 33 33 32 33 37
35 27 34 37 41 41 39 41 31 24 13 13 23 26 31 36 37 36 37 38 39 39 40 41 40 39 38 37 36 35 35 34 34 33 33 33 32 32 32 32 32 32 32 32
38 34 33 37 36 36 38 33 34 32 26 20 17 26 35 35 37 38 38 40 40 41 41 41 40 40 39 37 35 34 34 33 33 33 32 32 31 31 31 30 31 31 31 31
40 35 26 35 35 37 37 35 34 25 24 24 24 26 39 38 37 40 40 42 40 42 43 42 41 40 37 36 35 34 34 33 33 32 32 31 31 30 29 29 29 30 30 30
40 30 26 27 36 36 37 40 37 34 31 26 23 26 39 37 38 40 41 41 43 42 42 42 40 39 39 37 35 34 33 33 32 31 30 29 29 29 28 28 29 30 29 29
44 32 30 24 29 33 31 37 39 38 31 30 29 28 33 36 38 39 41 43 43 44 43 41 41 40 40 38 36 34 33 32 31 30 29 28 28 28 28 28 28 29 28 28
41 27 31 32 32 32 32 34 34 35 37 33 31 32 38 43 43 45 45 45 44 43 42 42 42 41 41 38 34 33 32 31 30 28 28 28 28 27 27 27 27 27 28 27
40 31 33 25 33 32 32 33 35 36 35 35 33 31 41 46 45 44 47 48 42 42 43 43 42 40 39 38 36 33 32 30 30 28 27 27 26 27 26 26 26 26 26 26
35 32 30 26 26 30 25 27 32 34 34 36 31 39 44 44 45 47 48 42 41 42 43 42 41 39 37 35 35 33 30 29 28 27 27 26 26 26 26 26 25 26 25 28
33 33 28 17 18 19 31 31 37 36 36 39 37 39 42 46 48 43 44 44 43 43 42 42 40 37 34 32 31 29 28 27 27 26 26 25 25 24 24 25 24 24 25 24
35 30 20 17 9 23 28 32 32 32 35 39 39 42 40 38 36 39 42 42 43 42 41 39 36 32 29 28 26 26 24 23 24 23 23 23 24 24 24 23 23 23 24 24
33 32 25 1 10 12 28 34 37 38 29 41 41 41 38 36 32 43 39 39 38 38 36 34 27 23 23 22 24 23 22 21 20 22 23 23 24 24 23 23 23 24 24 25
28 27 27 6 9 20 31 33 38 24 31 37 37 39 33 35 41 39 38 36 35 34 30 23 22 24 22 20 21 19 18 19 20 21 21 21 22 22 22 23 23 24 23 22
29 27 25 18 14 19 33 31 33 37 34 37 36 36 35 35 34 35 34 35 33 31 25 24 20 20 17 19 20 19 18 18 18 19 19 18 19 22 22 23 23 23 20 18
24 29 23 29 30 34 31 33 35 35 38 37 37 36 36 35 33 33 33 33 33 31 23 19 19 17 14 15 18 17 16 16 16 17 16 16 19 22 22 22 21 20 19 17
25 23 24 28 28 32 33 33 32 36 38 34 34 35 34 35 33 33 32 31 29 23 22 18 16 15 14 13 17 16 15 17 17 16 17 18 19 20 20 21 21 19 17 16
25 26 19 25 23 27 30 34 37 38 31 31 31 34 35 32 32 31 31 29 27 25 17 17 17 16 15 13 13 11 15 16 16 17 18 19 19 19 18 18 18 17 13 15
23 24 27 27 29 32 37 31 32 33 35 34 32 28 27 29 30 26 28 26 23 21 14 14 14 13 11 11 10 10 15 17 16 17 18 18 18 17 15 15 14 22 20 23
MSLP
1017.96 1018.50 1018.45 1018.58 1018.77 1019.18 1019.52 1019.75 1019.92 1019.71 1019.23 1019.45 1019.30 1019.31 1018.63 1018.36 1018.40 1018.48 1019.01 1019.17 1019.20 1019.58 1020.26 1020.89 1021.40 1021.60 1021.42 1021.33 1021.32 1021.37 1021.20 1021.07 1020.83 1020.64 1020.56 1020.44 1020.58 1021.13 1021.27 1021.43 1021.48 1021.31 1021.12 1020.93
1018.95 1018.83 1018.90 1019.03 1019.21 1019.59 1019.77 1020.04 1020.17 1019.86 1019.65 1020.03 1019.93 1019.72 1018.70 1018.47 1018.05 1017.75 1017.94 1018.51 1019.12 1019.86 1020.61 1021.19 1021.65 1021.84 1021.85 1021.99 1022.04 1021.95 1021.82 1021.65 1021.43 1021.12 1020.84 1020.51 1020.98 1021.59 1021.79 1022.15 1022.18 1021.96 1021.78 1021.64
1018.99 1018.92 1018.95 1019.36 1019.79 1019.99 1020.11 1020.30 1020.30 1020.31 1020.28 1020.51 1020.55 1019.95 1018.75 1017.67 1017.43 1017.11 1017.31 1017.69 1018.36 1019.24 1020.15 1021.07 1021.74 1022.13 1022.29 1022.45 1022.59 1022.53 1022.43 1022.21 1021.87 1021.42 1021.05 1020.99 1021.23 1021.63 1022.07 1022.46 1022.71 1022.68 1022.33 1022.26
1019.33 1019.01 1019.29 1019.55 1019.88 1020.13 1020.57 1020.32 1020.40 1020.79 1021.23 1021.81 1021.60 1020.99 1019.32 1018.06 1017.69 1017.18 1016.97 1017.54 1018.27 1019.07 1020.13 1021.12 1021.73 1022.31 1022.62 1022.95 1022.96 1022.88 1022.71 1022.48 1022.20 1021.78 1021.57 1021.60 1021.64 1022.16 1022.66 1022.98 1023.35 1023.12 1022.83 1022.77
1019.22 1019.35 1019.45 1019.60 1019.66 1019.97 1020.38 1020.48 1020.91 1021.36 1022.04 1022.48 1022.56 1022.53 1019.31 1018.38 1017.59 1017.05 1017.16 1017.88 1018.69 1019.48 1020.12 1021.25 1021.99 1022.44 1022.80 1023.04 1023.27 1023.21 1023.10 1023.01 1022.84 1022.63 1022.40 1022.23 1022.53 1022.85 1023.22 1023.63 1023.83 1023.80 1023.65 1023.60
1019.44 1019.22 1019.17 1019.08 1019.43 1019.63 1020.39 1021.04 1021.87 1022.57 1023.10 1023.38 1022.72 1022.40 1020.30 1018.85 1017.87 1017.53 1017.94 1018.56 1019.34 1020.18 1021.04 1021.86 1022.27 1022.65 1022.93 1023.10 1023.29 1023.49 1023.66 1023.83 1023.65 1023.38 1023.29 1023.14 1023.38 1023.61 1023.84 1024.36 1024.42 1024.44 1024.41 1024.42
1019.66 1019.54 1019.24 1019.06 1019.64 1019.95 1020.31 1021.31 1023.06 1024.07 1024.55 1023.91 1023.16 1022.83 1020.10 1018.33 1017.97 1018.05 1018.25 1019.41 1020.13 1020.73 1021.43 1022.08 1022.46 1022.81 1023.05 1023.30 1023.62 1023.85 1024.15 1024.41 1024.31 1024.04 1023.92 1023.97 1024.07 1024.16 1024.59 1024.93 1025.15 1025.05 1025.00 1025.18
1019.73 1020.08 1019.22 1018.83 1018.91 1019.29 1020.35 1021.01 1022.43 1023.59 1024.76 1024.31 1023.46 1021.89 1018.90 1018.11 1018.18 1018.23 1018.52 1019.70 1020.60 1021.36 1021.77 1021.99 1022.34 1022.78 1023.24 1023.63 1023.95 1024.15 1024.37 1024.49 1024.48 1024.51 1024.58 1024.67 1024.65 1024.88 1025.21 1025.32 1025.44 1025.45 1025.61 1025.78
1019.34 1019.32 1018.92 1018.78 1018.67 1018.96 1020.33 1020.97 1022.04 1023.61 1025.21 1024.76 1022.81 1020.98 1018.74 1018.27 1018.75 1018.99 1019.52 1020.27 1020.86 1021.25 1021.68 1022.19 1022.53 1022.80 1023.23 1023.63 1023.98 1024.28 1024.53 1024.69 1024.86 1024.99 1025.11 1025.18 1025.31 1025.56 1025.83 1025.83 1025.95 1025.94 1026.03 1026.10
1018.36 1019.17 1019.22 1019.11 1018.99 1019.17 1019.18 1020.30 1022.02 1023.52 1024.66 1024.38 1022.65 1021.29 1019.17 1018.67 1018.94 1019.58 1020.19 1020.56 1020.78 1021.23 1021.67 1021.97 1022.34 1022.75 1023.14 1023.50 1023.94 1024.32 1024.58 1024.88 1025.10 1025.22 1025.31 1025.56 1025.83 1026.08 1026.26 1026.22 1026.28 1026.23 1026.53 1026.75
1018.03 1018.52 1019.79 1019.44 1019.30 1019.16 1019.62 1020.09 1021.02 1022.15 1023.15 1023.39 1022.77 1020.60 1019.00 1018.89 1018.83 1019.41 1020.09 1020.40 1020.69 1021.04 1021.34 1021.68 1021.95 1022.29 1022.74 1023.32 1023.86 1024.38 1024.77 1024.97 1025.18 1025.33 1025.59 1025.89 1026.23 1026.31 1026.50 1026.60 1026.58 1026.61 1026.89 1027.13
1017.79 1018.35 1019.36 1019.28 1019.43 1019.47 1019.24 1019.49 1020.27 1021.44 1022.61 1022.60 1022.04 1020.11 1019.08 1018.72 1018.46 1018.75 1019.44 1019.90 1020.40 1020.79 1020.98 1021.12 1021.36 1021.90 1022.57 1023.09 1023.63 1024.10 1024.51 1024.84 1025.13 1025.43 1025.71 1026.03 1026.28 1026.51 1026.56 1026.79 1026.79 1026.87 1027.22 1027.43
1017.17 1018.23 1019.44 1019.97 1019.85 1019.56 1019.38 1019.42 1019.78 1020.47 1021.00 1021.12 1021.34 1019.91 1019.02 1018.68 1018.71 1018.90 1019.01 1019.34 1019.64 1019.94 1020.31 1020.63 1021.14 1021.60 1022.05 1022.61 1023.10 1023.57 1024.05 1024.51 1024.92 1025.33 1025.60 1026.02 1026.34 1026.56 1026.74 1026.94 1027.09 1027.23 1027.56 1027.79
1016.60 1017.66 1018.15 1018.67 1018.45 1018.46 1019.22 1019.03 1019.18 1019.71 1019.90 1020.12 1019.61 1019.46 1019.14 1018.98 1018.94 1018.91 1019.01 1019.12 1019.33 1019.49 1019.75 1020.26 1020.80 1021.14 1021.49 1021.91 1022.43 1022.95 1023.51 1023.99 1024.52 1024.99 1025.43 1025.91 1026.32 1026.68 1027.06 1027.27 1027.46 1027.64 1027.89 1028.11
1016.74 1017.83 1018.55 1018.88 1018.89 1018.89 1018.57 1018.39 1018.66 1018.74 1019.05 1019.14 1019.04 1019.07 1018.47 1018.29 1018.40 1018.42 1018.55 1018.72 1019.00 1019.17 1019.47 1019.97 1020.42 1020.68 1020.96 1021.42 1021.85 1022.24 1022.76 1023.43 1024.04 1024.82 1025.38 1025.89 1026.38 1026.87 1027.20 1027.42 1027.65 1027.89 1028.07 1028.27
1016.91 1018.05 1018.88 1019.80 1019.63 1019.51 1019.18 1018.42 1018.24 1018.52 1018.76 1018.80 1018.64 1018.56 1017.83 1017.31 1017.74 1018.10 1017.82 1018.15 1018.90 1019.33 1019.54 1019.60 1019.97 1020.42 1020.92 1021.43 1021.78 1022.25 1022.70 1023.29 1024.02 1024.75 1025.39 1025.88 1026.38 1026.90 1027.32 1027.59 1027.86 1028.09 1028.33 1028.43
1017.33 1018.51 1019.90 1021.05 1021.10 1020.50 1019.58 1018.25 1018.00 1018.07 1018.08 1017.95 1017.72 1017.10 1017.13 1017.37 1017.28 1016.72 1017.22 1018.04 1018.39 1018.97 1019.16 1019.50 1019.79 1020.30 1020.79 1021.24 1021.59 1022.02 1022.55 1023.21 1023.92 1024.49 1025.06 1025.63 1026.18 1026.68 1027.30 1027.75 1028.12 1028.45 1028.70 1028.83
1017.20 1018.66 1020.53 1022.23 1022.28 1021.04 1018.00 1017.06 1016.71 1016.92 1016.67 1016.50 1016.13 1016.09 1015.92 1015.93 1015.95 1016.53 1016.76 1016.99 1017.91 1018.45 1018.81 1019.18 1019.63 1020.31 1020.93 1021.38 1021.68 1022.05 1022.64 1023.20 1023.86 1024.49 1024.99 1025.61 1026.18 1026.77 1027.33 1027.80 1028.15 1028.42 1028.79 1029.08
1016.98 1018.83 1021.42 1022.77 1022.82 1020.11 1017.99 1017.05 1016.59 1016.45 1015.58 1015.23 1015.46 1015.31 1015.55 1016.03 1016.51 1016.36 1016.20 1016.93 1017.32 1017.80 1018.29 1018.92 1019.71 1020.55 1021.18 1021.65 1022.03 1022.48 1023.13 1023.57 1024.00 1024.45 1025.03 1025.55 1025.93 1026.47 1027.07 1027.52 1027.89 1028.37 1028.80 1029.22
1018.03 1018.56 1020.50 1023.46 1022.46 1020.37 1016.94 1015.33 1015.13 1015.57 1014.47 1013.96 1014.43 1015.02 1015.50 1016.42 1017.07 1015.54 1015.86 1016.39 1017.18 1017.74 1018.45 1019.25 1020.33 1021.03 1021.57 1021.88 1022.21 1022.80 1023.38 1023.78 1024.16 1024.59 1025.06 1025.63 1026.03 1026.48 1026.89 1027.32 1027.74 1028.19 1028.69 1029.40
1018.48 1019.40 1020.25 1021.94 1021.30 1018.40 1015.73 1015.25 1015.08 1015.47 1013.91 1012.75 1013.65 1014.34 1015.45 1016.12 1015.39 1015.36 1015.57 1016.36 1016.96 1017.80 1018.71 1019.78 1020.48 1021.00 1021.35 1021.98 1022.47 1023.08 1023.46 1023.69 1023.90 1024.29 1024.86 1025.49 1026.01 1026.43 1026.97 1027.52 1027.90 1028.27 1028.64 1029.52
1017.17 1018.57 1019.69 1020.59 1020.22 1017.21 1014.16 1015.14 1014.18 1013.07 1012.75 1012.94 1013.60 1013.96 1014.80 1014.80 1015.58 1015.77 1016.13 1016.92 1017.77 1018.50 1019.22 1019.89 1020.70 1021.27 1021.66 1022.11 1022.46 1023.01 1023.41 1023.63 1024.01 1024.35 1024.89 1025.60 1026.13 1026.42 1026.90 1027.42 1027.89 1028.27 1028.83 1029.72
1017.41 1016.37 1017.15 1017.20 1015.26 1013.82 1013.64 1012.91 1012.77 1012.75 1012.83 1012.93 1013.11 1013.59 1014.15 1015.00 1015.66 1016.04 1016.60 1017.06 1017.61 1018.37 1019.36 1020.41 1020.91 1021.15 1021.61 1021.88 1022.21 1022.70 1022.81 1023.24 1024.00 1024.48 1025.00 1025.62 1026.11 1026.46 1026.86 1027.28 1027.79 1028.31 1029.03 1029.86
1016.78 1016.32 1016.15 1016.33 1014.05 1013.83 1013.42 1013.22 1013.17 1013.03 1012.65 1012.64 1013.20 1013.79 1014.43 1015.09 1015.50 1016.15 1016.75 1017.32 1017.99 1018.46 1019.08 1019.89 1020.80 1021.06 1021.16 1021.44 1021.91 1022.21 1022.61 1023.08 1023.61 1024.10 1024.59 1025.31 1026.07 1026.50 1026.91 1027.26 1027.73 1028.28 1029.03 1029.75
1015.78 1016.01 1016.06 1015.06 1014.68 1014.24 1013.72 1013.27 1012.88 1012.79 1013.39 1013.57 1013.86 1014.11 1014.51 1015.22 1015.60 1016.11 1016.46 1017.04 1017.40 1017.88 1018.67 1019.39 1019.93 1020.29 1020.47 1021.06 1021.63 1021.91 1022.21 1022.92 1023.64 1023.94 1024.27 1025.01 1025.90 1026.47 1026.98 1027.43 1027.72 1028.30 1028.96 1029.13
1014.88 1014.64 1014.90 1013.99 1013.91 1013.57 1013.18 1012.85 1012.97 1013.73 1013.70 1013.69 1014.33 1014.53 1014.86 1015.27 1015.48 1015.68 1015.93 1016.07 1016.75 1017.29 1017.95 1018.75 1019.22 1019.75 1020.14 1020.75 1021.28 1021.75 1021.96 1022.36 1023.07 1023.64 1024.28 1024.93 1025.66 1026.43 1027.17 1027.74 1028.15 1028.31 1028.62 1028.90
Wind_Speed
2 3 7 10 4 4 6 4 3 3 3 2 6 8 11 10 4 8 8 8 7 8 5 4 3 3 4 7 7 7 6 7 5 3 2 2 3 3 5 5 8 7 6 7
4 6 3 5 4 5 3 3 3 1 2 3 5 10 11 8 8 9 11 10 10 6 6 5 4 4 5 4 6 6 6 6 4 2 2 2 3 4 5 4 6 7 8 7
6 1 7 5 3 5 3 5 3 2 4 2 6 8 6 5 5 5 8 9 7 13 12 8 6 4 4 6 6 6 6 6 5 5 1 4 5 3 2 3 4 6 7 7
3 1 6 4 4 5 3 5 3 2 3 3 4 7 7 5 8 6 6 6 7 8 6 6 6 4 4 4 4 5 6 7 6 7 3 1 2 3 2 3 2 3 7 8
6 5 5 4 4 5 6 5 6 2 3 2 1 2 9 3 7 7 2 2 2 5 10 9 7 6 5 5 4 4 6 7 7 7 5 3 5 3 3 3 4 5 6 8
4 1 5 8 3 7 7 6 7 5 3 3 6 6 6 4 4 4 1 2 5 7 8 7 5 5 4 4 4 5 6 6 6 6 7 7 6 5 4 3 3 3 3 5
2 1 1 3 7 3 3 6 3 4 1 7 2 3 10 8 6 4 4 4 5 6 7 6 6 4 3 3 3 3 4 4 5 6 7 7 6 6 6 4 3 4 3 4
6 3 8 5 5 7 4 6 6 7 5 4 2 7 7 3 4 5 5 8 6 5 5 6 5 4 2 2 2 2 3 4 6 6 6 5 6 4 4 4 3 3 3 3
6 4 0 2 3 7 5 4 4 6 2 2 4 7 9 2 5 5 7 7 6 6 5 5 4 4 5 4 3 2 3 4 4 5 5 6 5 6 4 5 4 3 3 3
6 2 1 1 2 3 6 9 3 3 2 4 4 5 6 3 1 2 5 6 6 3 4 5 5 5 4 4 3 3 3 3 3 5 5 5 5 5 4 4 5 5 5 5
5 4 2 4 5 8 4 4 3 5 4 5 2 6 5 2 4 6 7 6 6 6 6 6 5 6 6 4 5 4 4 4 4 4 4 5 4 4 4 4 4 5 5 5
6 5 4 8 2 2 1 5 5 5 5 4 3 7 3 4 2 7 8 7 4 5 5 6 7 5 5 6 5 5 4 5 5 5 5 5 4 4 4 4 5 5 5 5
8 3 5 3 1 3 4 5 5 4 3 6 6 6 4 1 4 5 8 6 4 2 3 4 3 5 6 6 6 7 6 6 6 6 6 5 5 4 4 4 4 5 5 5
8 3 5 9 5 7 7 9 10 12 9 4 7 2 3 2 4 4 4 5 3 4 4 3 4 6 6 6 7 7 7 7 7 6 6 6 5 5 4 4 5 5 5 6
5 5 4 1 2 2 5 9 10 18 15 11 6 9 9 8 8 7 6 5 4 5 4 5 6 6 6 6 6 6 7 8 7 7 6 6 5 5 5 5 5 5 5 5
1 3 3 2 2 3 5 10 12 14 7 9 2 5 5 8 7 4 5 11 7 8 8 7 7 6 6 6 5 5 6 7 8 7 6 6 6 6 5 6 6 6 6 5
8 6 4 4 3 3 10 9 11 7 6 11 14 15 8 10 14 17 15 9 10 10 8 7 6 5 3 4 5 5 6 7 8 8 8 8 8 7 6 6 6 6 5 6
10 8 3 3 3 6 3 2 8 14 10 16 5 7 11 16 14 6 11 8 8 8 8 7 5 4 2 1 1 3 6 7 9 8 9 8 8 7 7 7 7 6 5 5
5 7 4 6 4 7 4 6 10 11 17 15 14 14 5 3 3 7 8 8 10 8 7 5 4 2 0 1 3 5 4 5 7 8 8 8 9 9 9 9 8 6 6 6
6 4 6 3 6 10 7 4 8 6 12 9 15 14 10 7 3 14 6 8 9 8 4 6 4 2 3 4 6 6 6 6 7 7 8 8 8 9 9 8 8 7 6 6
7 2 10 3 4 10 9 7 7 7 7 5 10 11 9 8 10 3 6 5 4 5 7 4 5 6 5 4 5 5 6 9 6 7 8 7 7 7 7 7 5 8 7 7
9 10 6 4 1 15 9 5 14 6 3 6 7 8 9 8 5 4 6 5 6 7 5 6 5 5 5 6 6 6 7 5 6 7 7 6 6 6 7 9 7 8 9 8
4 8 9 12 11 1 7 4 7 3 6 6 6 6 8 7 8 8 7 8 9 7 5 5 6 6 5 5 6 7 6 8 8 9 8 7 7 7 8 8 8 7 7 6
5 2 3 4 3 6 5 5 3 8 9 2 4 6 7 7 7 7 8 7 6 5 8 6 7 8 8 7 7 5 9 9 10 10 10 8 8 7 7 5 6 6 6 6
6 8 6 8 2 4 5 9 10 13 2 3 3 6 8 7 8 8 7 9 9 9 6 8 11 9 9 8 7 7 9 10 9 9 9 9 7 7 7 5 5 5 2 7
7 9 7 8 8 7 6 5 4 7 9 9 8 5 6 8 11 6 10 8 6 8 5 6 7 6 6 8 7 7 9 11 11 10 8 8 7 7 6 6 4 9 10 11
Wind_Direction
54 130 193 199 162 128 131 128 181 236 277 188 236 261 262 275 286 265 246 237 231 208 151 116 77 43 73 42 41 30 19 3 13 17 30 72 71 65 56 45 32 32 24 18
61 234 192 141 120 109 116 126 234 266 16 170 322 279 269 239 240 220 233 225 218 164 164 154 135 74 61 61 35 28 22 10 4 347 315 91 104 76 73 56 33 28 31 23
161 217 160 144 150 138 144 157 174 144 354 46 340 286 276 285 247 248 242 233 190 190 177 169 151 102 71 54 30 28 13 4 2 345 337 73 99 85 82 40 35 18 37 34
211 256 146 131 170 130 192 207 147 122 67 243 39 288 303 290 295 259 253 242 205 172 131 136 146 127 104 67 44 35 22 17 11 360 38 198 132 137 73 79 60 43 39 43
236 156 124 125 187 142 223 148 149 111 98 34 302 292 271 318 285 280 192 106 94 148 146 149 147 132 101 75 53 36 36 28 14 19 24 63 69 73 82 61 63 36 41 39
187 169 159 187 156 156 154 83 51 50 68 324 226 186 276 245 244 322 343 127 117 116 110 111 105 111 97 78 63 48 48 33 24 35 34 55 78 86 79 47 52 40 38 29
134 205 299 141 92 57 125 104 22 355 247 229 328 197 247 266 290 302 246 152 121 121 126 134 141 133 129 116 75 71 59 47 37 51 49 55 71 75 82 63 44 36 27 25
144 286 177 190 179 169 174 142 155 202 196 263 103 239 250 192 14 356 96 122 114 124 146 158 155 153 175 188 154 109 89 72 50 55 58 55 59 69 70 72 72 67 62 53
132 268 3 145 147 137 177 176 151 103 28 48 223 284 298 127 38 52 104 118 153 173 177 184 177 191 195 197 206 165 117 94 78 77 71 59 61 63 72 64 59 60 47 69
197 89 343 62 102 32 152 151 111 2 162 259 285 273 246 5 74 84 120 163 189 179 190 204 205 211 211 207 195 167 146 134 119 99 84 77 76 79 75 76 69 72 65 58
143 114 150 118 228 175 146 173 139 130 140 174 266 259 218 268 271 182 189 195 189 196 208 217 223 215 209 198 192 182 169 149 128 110 104 105 98 86 82 79 75 75 76 69
200 133 152 191 182 284 287 180 146 131 205 232 157 273 2 303 331 152 169 186 190 215 219 217 221 213 206 212 201 195 184 172 163 146 136 131 121 110 99 89 85 92 92 73
173 185 111 23 309 347 225 191 165 119 101 196 149 259 341 43 101 158 154 172 173 217 247 262 282 260 241 215 203 199 191 187 170 160 151 143 133 122 119 117 107 96 93 79
126 146 161 185 199 139 192 204 201 204 233 165 214 214 286 263 145 160 173 168 188 227 246 260 273 263 263 237 211 202 192 181 172 165 159 154 152 147 140 122 108 101 99 94
134 171 157 181 347 174 206 192 191 217 226 218 197 197 208 203 210 202 216 227 222 282 299 262 260 266 263 252 228 207 191 181 167 163 160 156 139 139 135 125 116 113 104 100
179 122 114 338 36 2 254 218 217 226 220 228 281 269 236 232 117 190 262 280 257 255 246 242 242 253 271 275 260 212 196 182 166 161 155 142 142 146 146 136 134 128 123 112
143 131 118 217 348 53 282 194 197 198 184 199 225 229 209 231 228 218 229 203 221 228 234 231 228 222 233 288 282 231 180 150 157 156 153 158 157 153 147 135 129 129 122 113
143 124 109 153 49 233 253 314 205 200 203 211 218 208 197 220 237 218 213 206 206 221 225 221 206 194 209 281 268 134 146 158 162 164 162 156 151 146 144 145 141 136 133 124
105 123 114 150 190 301 273 194 169 174 240 216 212 227 203 145 74 273 211 200 216 211 211 185 158 156 255 179 145 133 131 144 158 163 161 160 157 155 156 156 152 141 133 129
96 81 126 114 150 213 245 207 150 103 260 222 201 224 209 128 216 252 178 198 211 196 169 174 152 142 166 186 154 145 157 156 167 164 165 162 161 162 163 154 152 147 140 141
157 108 193 174 215 282 234 177 148 147 241 195 174 207 148 184 212 209 157 179 176 180 178 141 167 199 203 162 148 165 167 190 171 145 147 151 156 153 146 143 144 150 139 122
162 162 180 108 125 262 160 82 172 199 193 143 183 198 189 213 156 211 190 171 176 192 199 192 189 205 187 185 167 177 193 155 142 139 136 138 142 147 148 150 146 140 130 127
209 186 177 190 210 201 196 184 208 185 161 212 196 193 193 193 204 192 218 234 225 217 199 184 199 202 208 192 181 181 186 148 146 141 140 142 145 153 156 154 148 141 136 136
246 197 198 99 245 210 222 251 249 208 230 185 112 161 164 198 206 206 214 231 238 220 212 178 183 209 215 196 198 192 159 156 155 153 151 153 159 152 148 144 143 142 150 149
189 136 167 268 197 330 258 236 229 242 124 96 168 204 216 201 229 218 233 236 224 220 188 183 198 207 211 183 191 171 160 157 159 158 155 156 156 155 140 128 144 147 130 161
183 177 173 228 192 175 254 221 168 228 244 222 203 241 229 196 231 198 236 232 208 219 171 188 202 200 189 182 179 170 165 165 161 161 162 161 151 146 139 134 125 158 158 165